Dalton, GA

9:03 AM EST on December 15, 2019 (GMT -0500)
Dalton Municipal

Weather History for KDNN - November, 2019

Change the Weather History Date:

Thursday, November 14, 2019

  Actual Average Record
Temperature  
Mean Temperature 40 °F -  
Max Temperature 48 °F 60 °F 78 °F (1964)
Min Temperature 32 °F 36 °F 21 °F (2013)
Degree Days  
Heating Degree Days 25    
Moisture  
Dew Point 29 °F    
Average Humidity 63    
Maximum Humidity 93    
Minimum Humidity 46    
Precipitation  
Precipitation 0.00 in - - ()
Sea Level Pressure  
Sea Level Pressure 30.31 in    
Wind  
Wind Speed 1 mph ()    
Max Wind Speed 6 mph    
Max Gust Speed -    
Visibility 10.0 miles    
Events Rain    
Averages and records for this station are not official NWS values.
T = Trace of Precipitation, MM = Missing Value Source: Averaged Metar Reports

Daily Weather History Graph

Daily Weather History Graph

Search for Another Location

Airport or City:

Astronomy

Nov. 14, 2019 Rise Set
Actual Time 7:12 AM EST 5:35 PM EST
Civil Twilight 6:45 AM EST 6:01 PM EST
Nautical Twilight 6:15 AM EST 6:32 PM EST
Astronomical Twilight 5:45 AM EST 7:02 PM EST
Moon 7:23 PM EST (11/14) 9:04 AM EST (11/14)
Length of Visible Light 11h 16m
Length of Day
10h 23m
Waning Gibbous, 95% of the Moon is Illuminated
Nov 14
Waning Gibbous
Nov 19
Last Quarter
Nov 26
New
Dec 4
First Quarter
Dec 12
Full

Hourly Weather History & Observations

Time (EST) Temp. Windchill Dew Point Humidity Pressure Visibility Wind Dir Wind Speed Gust Speed Precip Events Conditions
12:15 AM 32.0 °F - 23.0 °F 69% 30.34 in 10.0 mi Calm Calm - N/A   Clear
12:35 AM 33.8 °F - 23.0 °F 65% 30.34 in 10.0 mi Calm Calm - N/A   Clear
1:15 AM 33.8 °F 30.8 °F 21.2 °F 60% 30.33 in 10.0 mi South 3.5 mph - N/A   Clear
1:35 AM 35.6 °F 31.7 °F 21.2 °F 56% 30.31 in 10.0 mi South 4.6 mph - N/A   Clear
1:55 AM 35.6 °F 32.8 °F 21.2 °F 56% 30.31 in 10.0 mi SSW 3.5 mph - N/A   Clear
2:15 AM 35.6 °F 32.8 °F 21.2 °F 56% 30.30 in 10.0 mi SSW 3.5 mph - N/A   Clear
2:35 AM 35.6 °F 31.7 °F 21.2 °F 56% 30.31 in 10.0 mi South 4.6 mph - N/A   Clear
2:55 AM 35.6 °F - 21.2 °F 56% 30.31 in 10.0 mi Calm Calm - N/A   Clear
3:15 AM 33.8 °F - 21.2 °F 60% 30.32 in 10.0 mi Calm Calm - N/A   Clear
3:35 AM 33.8 °F 30.8 °F 21.2 °F 60% 30.32 in 10.0 mi SW 3.5 mph - N/A   Clear
4:15 AM 33.8 °F - 23.0 °F 65% 30.31 in 10.0 mi Calm Calm - N/A   Clear
4:35 AM 33.8 °F - 23.0 °F 65% 30.31 in 10.0 mi Calm Calm - N/A   Clear
4:55 AM 33.8 °F - 23.0 °F 65% 30.31 in 10.0 mi Calm Calm - N/A   Clear
5:15 AM 33.8 °F 30.8 °F 23.0 °F 65% 30.32 in 10.0 mi WSW 3.5 mph - N/A   Scattered Clouds
5:35 AM 35.6 °F 32.8 °F 23.0 °F 60% 30.32 in 10.0 mi SW 3.5 mph - N/A   Mostly Cloudy
5:55 AM 35.6 °F - 23.0 °F 60% 30.33 in 10.0 mi Calm Calm - N/A   Mostly Cloudy
6:15 AM 35.6 °F - 21.2 °F 56% 30.34 in 10.0 mi Calm Calm - N/A   Mostly Cloudy
6:35 AM 35.6 °F - 23.0 °F 60% 30.34 in 10.0 mi Calm Calm - N/A   Scattered Clouds
6:55 AM 35.6 °F - 23.0 °F 60% 30.34 in 10.0 mi Calm Calm - N/A   Clear
7:15 AM 35.6 °F - 23.0 °F 60% 30.34 in 10.0 mi Calm Calm - N/A   Clear
7:35 AM 35.6 °F - 23.0 °F 60% 30.34 in 10.0 mi Calm Calm - N/A   Scattered Clouds
7:55 AM 35.6 °F - 23.0 °F 60% 30.34 in 10.0 mi Calm Calm - N/A   Mostly Cloudy
8:15 AM 35.6 °F - 26.6 °F 70% 30.35 in 10.0 mi Calm Calm - N/A   Overcast
8:35 AM 37.4 °F - 26.6 °F 65% 30.35 in 10.0 mi Calm Calm - N/A   Mostly Cloudy
8:55 AM 37.4 °F - 24.8 °F 60% 30.35 in 10.0 mi Calm Calm - N/A   Overcast
9:15 AM 37.4 °F - 24.8 °F 60% 30.35 in 10.0 mi Calm Calm - N/A   Scattered Clouds
9:35 AM 39.2 °F - 23.0 °F 52% 30.35 in 10.0 mi Calm Calm - N/A   Clear
9:55 AM 39.2 °F - 24.8 °F 56% 30.35 in 10.0 mi Calm Calm - N/A   Clear
10:15 AM 41.0 °F - 23.0 °F 49% 30.34 in 10.0 mi Calm Calm - N/A   Clear
10:35 AM 41.0 °F - 24.8 °F 53% 30.36 in 10.0 mi Calm Calm - N/A   Mostly Cloudy
10:55 AM 42.8 °F - 24.8 °F 49% 30.35 in 10.0 mi Calm Calm - N/A   Overcast
11:15 AM 42.8 °F - 26.6 °F 53% 30.35 in 10.0 mi Calm Calm - N/A   Overcast
11:35 AM 44.6 °F - 26.6 °F 49% 30.35 in 10.0 mi Calm Calm - N/A   Overcast
11:55 AM 44.6 °F 43.1 °F 26.6 °F 49% 30.34 in 10.0 mi SE 3.5 mph - N/A   Overcast
12:15 PM 46.4 °F - 26.6 °F 46% 30.32 in 10.0 mi Calm Calm - N/A   Overcast
12:35 PM 46.4 °F - 26.6 °F 46% 30.32 in 10.0 mi Calm Calm - N/A   Overcast
12:55 PM 46.4 °F - 28.4 °F 50% 30.31 in 10.0 mi Calm Calm - N/A   Scattered Clouds
1:15 PM 48.2 °F - 28.4 °F 46% 30.30 in 10.0 mi Calm Calm - N/A   Scattered Clouds
1:35 PM 46.4 °F 44.3 °F 28.4 °F 50% 30.30 in 10.0 mi South 4.6 mph - N/A   Mostly Cloudy
1:55 PM 46.4 °F - 28.4 °F 50% 30.31 in 10.0 mi Calm Calm - N/A   Overcast
2:15 PM 46.4 °F - 28.4 °F 50% 30.28 in 10.0 mi Calm Calm - N/A   Overcast
2:35 PM 46.4 °F - 28.4 °F 50% 30.28 in 10.0 mi Calm Calm - N/A   Overcast
2:55 PM 48.2 °F - 28.4 °F 46% 30.29 in 10.0 mi SSE 5.8 mph - N/A   Overcast
3:15 PM 48.2 °F - 28.4 °F 46% 30.29 in 10.0 mi Calm Calm - N/A   Overcast
3:35 PM 48.2 °F - 28.4 °F 46% 30.28 in 10.0 mi Calm Calm - N/A   Overcast
3:55 PM 48.2 °F - 30.2 °F 50% 30.27 in 10.0 mi Calm Calm - N/A   Overcast
4:15 PM 48.2 °F - 30.2 °F 50% 30.28 in 10.0 mi Calm Calm - N/A   Overcast
4:35 PM 46.4 °F - 30.2 °F 53% 30.28 in 10.0 mi Calm Calm - N/A   Scattered Clouds
4:55 PM 46.4 °F - 30.2 °F 53% 30.28 in 10.0 mi Calm Calm - N/A   Scattered Clouds
5:15 PM 46.4 °F - 32.0 °F 57% 30.29 in 10.0 mi Calm Calm - N/A   Mostly Cloudy
5:35 PM 46.4 °F - 32.0 °F 57% 30.28 in 10.0 mi Calm Calm - N/A   Overcast
5:55 PM 46.4 °F - 33.8 °F 62% 30.29 in 10.0 mi Calm Calm - N/A   Light Drizzle
6:15 PM 44.6 °F - 35.6 °F 71% 30.29 in 10.0 mi Calm Calm - N/A   Light Drizzle
6:35 PM 44.6 °F - 37.4 °F 76% 30.28 in 10.0 mi Calm Calm - N/A Rain Rain
6:55 PM 44.6 °F - 37.4 °F 76% 30.29 in 10.0 mi Calm Calm - N/A Rain Light Rain
7:15 PM 42.8 °F 41.1 °F 39.2 °F 87% 30.27 in 10.0 mi North 3.5 mph - N/A   Light Drizzle
7:35 PM 42.8 °F - 39.2 °F 87% 30.26 in 10.0 mi Calm Calm - N/A Rain Light Rain
7:55 PM 42.8 °F - 39.2 °F 87% 30.27 in 10.0 mi Calm Calm - N/A Rain Light Rain
8:35 PM 42.8 °F - 39.2 °F 87% 30.28 in 10.0 mi Calm Calm - N/A   Overcast
8:55 PM 42.8 °F - 39.2 °F 87% 30.28 in 10.0 mi Calm Calm - N/A   Overcast
9:15 PM 42.8 °F - 39.2 °F 87% 30.28 in 10.0 mi Calm Calm - N/A   Overcast
9:35 PM 42.8 °F - 39.2 °F 87% 30.28 in 10.0 mi Calm Calm - N/A   Overcast
9:55 PM 42.8 °F - 41.0 °F 93% 30.28 in 10.0 mi Calm Calm - N/A   Overcast
10:15 PM 42.8 °F - 41.0 °F 93% 30.28 in 10.0 mi Calm Calm - N/A   Overcast
10:35 PM 42.8 °F - 41.0 °F 93% 30.29 in 10.0 mi Calm Calm - N/A   Overcast
10:55 PM 42.8 °F - 39.2 °F 87% 30.29 in 10.0 mi Calm Calm - N/A   Overcast
11:15 PM 42.8 °F - 41.0 °F 93% 30.29 in 10.0 mi Calm Calm - N/A   Overcast
11:35 PM 42.8 °F - 41.0 °F 93% 30.29 in 10.0 mi Calm Calm - N/A   Overcast
11:55 PM 42.8 °F - 39.2 °F 87% 30.28 in 10.0 mi Calm Calm - N/A   Overcast